Home > Weather > Rouen > Past weeks

Flag for France Past Weather in Rouen, Upper Normandy, France — Yesterday and Last 2 Weeks

Now
59 °F

Clear.


Feels Like: 58 °F
Forecast: 52 / 78 °F
Wind: 6 mph from North

Location: Rouen Airport

Current Time: Aug 29, 2016 at 11:58:57 PM

Latest Report: Aug 29, 2016 at 11:30 PM


Visibility: 10 mi

Pressure: 30.27 "Hg

Humidity: 88%

Dew Point: 55 °F

Location of RouenLocation

Past Weather in Rouen — Graph

°F

Rouen Temperature Yesterday

Maximum temperature yesterday: 79 °F (at 4:00 PM)
Minimum temperature yesterday: 61 °F (at 7:30 AM)
Average temperature yesterday: 70 °F

High & Low Weather Summary for the Past Weeks

 TemperatureHumidityPressure
High97 °F (Aug 24, 4:30 PM)100% (Aug 20, 7:00 AM)30.33 "Hg (Aug 20, 7:00 AM)
Low54 °F (Aug 16, 7:00 AM)28% (Aug 24, 5:00 PM)29.77 "Hg (Aug 19, 12:00 PM)
Average69 °F69%30.03 "Hg
* Reported Aug 14 10:00 PM — Aug 29 10:30 PM, Rouen, Weather by CustomWeather, © 2016

Note: Actual official high and low records may vary slightly from our data, if they occured in-between our weather recording intervals... More about our weather records

Advertising

Rouen Weather History for the Previous 24 Hours

Scroll right to see more
 ConditionsComfort  
Time TempWeatherWind HumidityBarometerVisibility
10:30 PM
Mon, Aug 29
61 °FClear.6 mph83%30.27 "Hg10 mi
10:00 PM61 °FClear.6 mph83%30.27 "Hg10 mi
9:30 PM63 °FSunny.6 mph73%30.24 "Hg10 mi
9:00 PM64 °FSunny.6 mph68%30.24 "Hg10 mi
8:30 PM64 °FSunny.7 mph68%30.21 "Hg10 mi
8:00 PM66 °FSunny.8 mph64%30.21 "Hg10 mi
7:30 PM68 °FSunny.9 mph60%30.21 "Hg10 mi
7:00 PM70 °FSunny.9 mph60%30.21 "Hg10 mi
6:30 PM70 °FPassing clouds.9 mph64%30.21 "HgN/A
6:00 PM68 °FPassing clouds.12 mph69%30.21 "HgN/A
5:30 PM70 °FPassing clouds.12 mph73%30.21 "HgN/A
5:00 PM72 °FPartly sunny.9 mph69%30.18 "HgN/A
4:30 PM70 °FBroken clouds.10 mph73%30.18 "HgN/A
4:00 PM70 °FBroken clouds.10 mph73%30.18 "HgN/A
3:30 PM68 °FBroken clouds.7 mph78%30.18 "HgN/A
3:00 PM68 °FPartly sunny.7 mph83%30.18 "HgN/A
2:30 PM66 °FPartly sunny.5 mph88%30.18 "HgN/A
2:00 PM64 °FLight rain. Broken clouds.6 mph94%30.18 "HgN/A
1:30 PM66 °FBroken clouds.5 mph88%30.18 "HgN/A
1:00 PM66 °FRain. Partly sunny.7 mph83%30.18 "HgN/A
12:30 PM66 °FMostly cloudy.9 mph83%30.18 "HgN/A
12:00 PM66 °FPartly sunny.7 mph88%30.18 "HgN/A
11:30 AM66 °FRain. Cloudy.8 mph83%30.15 "HgN/A
11:00 AM66 °FMostly cloudy.8 mph83%30.15 "HgN/A
10:30 AM66 °FBroken clouds.7 mph83%30.15 "HgN/A
10:00 AM66 °FPartly sunny.8 mph88%30.12 "HgN/A
9:30 AM64 °FMostly cloudy.7 mph88%30.12 "Hg6 mi
9:00 AM63 °FMostly cloudy.6 mph94%30.12 "Hg6 mi
8:30 AM63 °FLow clouds.6 mph94%30.12 "Hg6 mi
8:00 AM61 °FLow clouds.5 mph94%30.12 "HgN/A
7:30 AM61 °FLow clouds.8 mph94%30.09 "HgN/A
7:00 AM61 °FLow clouds.8 mph94%30.09 "HgN/A
6:30 AM61 °FLow clouds.9 mph94%30.09 "HgN/A
6:00 AM61 °FLow clouds.9 mph94%30.09 "HgN/A
5:30 AM61 °FMostly cloudy.9 mph94%30.09 "HgN/A
5:00 AM61 °FOvercast.7 mph94%30.07 "HgN/A
4:30 AM63 °FDrizzle. Overcast.9 mph88%30.07 "Hg5 mi
4:00 AM63 °FOvercast.7 mph88%30.07 "HgN/A
3:30 AM63 °FOvercast.9 mph88%30.07 "HgN/A
3:00 AM63 °FMostly cloudy.9 mph88%30.07 "HgN/A
2:30 AM63 °FMostly cloudy.10 mph88%30.07 "HgN/A
2:00 AM63 °FMostly cloudy.8 mph88%30.09 "HgN/A
1:30 AM63 °FMostly cloudy.7 mph88%30.09 "HgN/A
1:00 AM64 °FMostly cloudy.12 mph78%30.09 "HgN/A
12:30 AM66 °FMostly cloudy.7 mph73%30.07 "HgN/A
12:00 AM66 °FClear.3 mph73%30.07 "Hg10 mi
11:30 PM
Sun, Aug 28
66 °FClear.5 mph73%30.07 "Hg10 mi
11:00 PM66 °FMostly cloudy.6 mph73%30.07 "HgN/A
Weather by CustomWeather, © 2016

See weather overviewHow to use our weather pages